{"data":{"norad_id":62177,"epoch":"2026-09-21T18:13:32.614464Z","epoch_age_seconds":69403,"freshness":"FRESH","line1":"1 62177U 24225Q   26264.75940526  .00122037  00000+0  99681-2 0  9995","line2":"2 62177  70.0022  30.1198 0002661 279.6800  80.4059 14.98679593 99246","mean_motion":14.98679593,"eccentricity":0.0002661,"inclination_deg":70.0022,"raan_deg":30.1198,"arg_perigee_deg":279.68,"mean_anomaly_deg":80.4059,"bstar":0.0099681,"rev_number":9924,"period_min":96.084580501791,"perigee_km":569.12585488059,"apogee_km":572.82417229422,"semimajor_km":6949.1120135874,"source":"CELESTRAK","updated_at":"2026-09-22T09:00:49.537030Z"}}